Regional Weather Roundup
Issued by NWS

Home | Current Version | Previous Version | Graphics & Text | Print | Product List | Glossary On
Versions: 1 2 3 4 5 6 7 8 9 10 11 12 13 14 15 16 17 18 19 20 21 22 23 24 25 26 27 28 29 30 31 32 33 34 35 36 37 38 39 40 41 42 43 44 45 46 47 48 49 50
000
ASUS44 KMEG 050600
RWRTN
TENNESSEE HOURLY STATE WEATHER ROUNDUP
NATIONAL WEATHER SERVICE MEMPHIS TN
100 AM CDT SUN JUL 05 2015

TNZ002-004-019-021-049-052-054-088>092-050700-
WEST TENNESSEE

CITY           SKY/WX    TMP DP  RH WIND       PRES   REMARKS
MEMPHIS INTL   MOCLDY    72  69  90 S7        30.04S
NWS MEMPHIS      N/A     71 N/A N/A MISG        N/A
JACKSON        MOCLDY    70  68  93 CALM      30.05R
DYERSBURG        N/A    N/A N/A N/A MISG        N/A
PARIS          MOCLDY    68  68 100 SW3       30.04R
LEXINGTON      CLEAR     68  66  94 SW3       30.03S
$$

TNZ008-025-027-028-033-062-065-066-050700-
NORTH MIDDLE TENNESSEE

CITY           SKY/WX    TMP DP  RH WIND       PRES   REMARKS
NASHVILLE      LGT RAIN  69  69 100 CALM      30.02S FOG
CLARKSVILLE    CLOUDY    72  69  90 W3        30.02S
COOKEVILLE       N/A     68  68 100 E9G41     30.03S
CROSSVILLE     HVY RAIN  69  66  90 VRB6G20   30.08R VSB 1
$$

TNZ061-075-076-078-094-096-097-050700-
SOUTH MIDDLE TENNESSEE

CITY           SKY/WX    TMP DP  RH WIND       PRES   REMARKS
FAYETTEVILLE     N/A     66  64  94 SW5       30.04S
TULLAHOMA      CLOUDY    66  66 100 CALM      30.04S
WINCHESTER     CLOUDY    68  66  94 CALM      30.04S
COLUMBIA       CLOUDY    66  66 100 VRB3      30.02R
SHELBYVILLE    CLOUDY    72  72 100 S3          N/A
$$

TNZ017-018-042-046-047-050700-
NORTHEAST TENNESSEE

CITY           SKY/WX    TMP DP  RH WIND       PRES   REMARKS
TRI CITIES     CLOUDY    69  68  96 CALM      30.10S FOG
ELIZABETHTON   DRIZZLE   66  66 100 CALM      30.11S FOG
$$

TNZ012-013-036-069-073-074-050700-
CENTRAL EAST TENNESSEE

CITY           SKY/WX    TMP DP  RH WIND       PRES   REMARKS
KNOXVILLE      NOT AVBL
OAK RIDGE      LGT RAIN  72  70  93 CALM      30.06S FOG
GATLINBURG     CLOUDY    70  68  94 CALM      30.07R
$$

TNZ083-085-099-050700-
SOUTHEAST TENNESSEE

CITY           SKY/WX    TMP DP  RH WIND       PRES   REMARKS
CHATTANOOGA    CLOUDY    72  69  90 CALM      30.04S FOG
$$

SKY/WX REPORTED AS FAIR MEANS FEW OR NO CLOUDS BELOW
12 THOUSAND FEET.




USA.gov is the U.S. government's official web portal to all federal, state and local government web resources and services.